WX8ASH Weather Reports


time (UTC)temp
C
wind
direction
speed
KPH
gust
KPH
rain 1hr
cm
rain 24hr
cm
rain mn
cm
humidity
%
barometer
mb
20260903073055 26 0 0.0 0.0 0.00 0.00 0.00 80 976.1
20260903072055 26 0 0.0 0.0 0.00 0.00 0.00 79 976.1
20260903071058 26 0 0.0 0.0 0.00 0.00 0.00 78 975.8
20260903064050 26 0 0.0 0.0 0.00 0.00 0.00 78 975.9
20260903062054 27 0 0.0 0.0 0.00 0.00 0.00 77 976.0
20260903061050 27 0 0.0 0.0 0.00 0.00 0.00 76 976.1
20260903060031 27 0 0.0 0.0 0.00 0.00 0.00 76 976.1
20260903055050 27 0 0.0 0.0 0.00 0.00 0.00 75 976.1
20260903054052 27 0 0.0 0.0 0.00 0.00 0.00 75 976.0
20260903053055 27 0 0.0 0.0 0.00 0.00 0.00 74 976.0
20260903052049 27 0 0.0 0.0 0.00 0.00 0.00 74 976.0
20260903051054 27 0 0.0 0.0 0.00 0.00 0.00 74 975.8
20260903050028 27 0 0.0 0.0 0.00 0.00 0.00 74 975.7
20260903045048 27 0 0.0 0.0 0.00 0.00 0.00 75 975.8
20260903044048 27 0 0.0 0.0 0.00 0.00 0.00 76 975.6
20260903043053 26 0 0.0 0.0 0.00 0.00 0.00 77 975.5
20260903042049 26 0 0.0 0.0 0.00 0.00 0.00 79 975.5
20260903041046 26 0 0.0 0.0 0.00 0.00 0.00 79 975.4
20260903040029 26 0 0.0 0.0 0.00 0.03 0.00 79 975.3
20260903034051 26 0 0.0 0.0 0.00 0.03 0.00 79 975.0
20260903033053 26 0 0.0 0.0 0.00 0.03 0.00 78 975.1
20260903032052 26 0 0.0 0.0 0.00 0.03 0.00 78 975.3
20260903031050 26 0 0.0 0.0 0.00 0.03 0.00 78 975.5
20260903030031 26 0 0.0 0.0 0.00 0.03 0.00 78 975.6
20260903025050 26 0 0.0 0.0 0.00 0.03 0.00 78 975.9
20260903024045 26 0 0.0 0.0 0.00 0.03 0.00 77 975.9
20260903023052 26 0 0.0 0.0 0.00 0.03 0.00 77 976.1
20260903022054 27 0 0.0 0.0 0.00 0.03 0.00 76 976.0
20260903021053 27 0 0.0 0.0 0.00 0.03 0.00 76 976.0
20260903020032 27 0 0.0 0.0 0.00 0.03 0.00 75 976.1
20260903015050 27 0 0.0 0.0 0.00 0.03 0.00 75 976.1
20260903014048 27 0 0.0 0.0 0.00 0.03 0.00 74 976.1
20260903013047 27 0 0.0 0.0 0.00 0.03 0.00 73 976.1
20260903012045 27 0 0.0 0.0 0.00 0.03 0.00 72 976.0
20260903011049 27 0 0.0 0.0 0.00 0.03 0.00 71 976.0
20260903010028 28 0 0.0 0.0 0.00 0.03 0.00 71 975.9
20260903005048 28 0 0.0 0.0 0.00 0.03 0.00 70 975.8
20260903004053 28 0 0.0 0.0 0.00 0.03 0.00 70 975.7
20260903003054 28 0 0.0 0.0 0.00 0.03 0.00 69 975.5
20260903002046 28 0 0.0 0.0 0.00 0.03 0.00 69 975.6
20260903000026 29 0 0.0 0.0 0.00 0.03 0.00 67 975.6
20260902233054 30 0 0.0 0.0 0.00 0.03 0.00 64 975.4
20260902232050 30 0 0.0 0.0 0.00 0.03 0.00 63 975.4
20260902225046 31 0 0.0 0.0 0.00 0.03 0.00 60 975.5
20260902224052 31 0 0.0 0.0 0.00 0.03 0.00 61 975.5
20260902222048 31 0 0.0 0.0 0.00 0.03 0.00 59 975.5
20260902221053 31 0 0.0 0.0 0.00 0.03 0.00 60 975.5
20260902220024 31 0 0.0 0.0 0.00 0.03 0.00 60 975.5
20260902215051 31 0 0.0 0.0 0.00 0.03 0.00 59 975.5
20260902214045 31 0 0.0 0.0 0.00 0.03 0.00 58 975.7
20260902213051 31 0 0.0 0.0 0.00 0.03 0.00 57 975.7
20260902211051 32 0 0.0 0.0 0.00 0.03 0.00 59 975.9
20260902210030 32 0 0.0 0.0 0.00 0.03 0.00 59 976.0
20260902205047 32 0 0.0 0.0 0.00 0.03 0.00 59 976.0
20260902204048 32 0 0.0 0.0 0.00 0.03 0.00 59 976.2
20260902203050 32 0 0.0 0.0 0.00 0.03 0.00 59 976.2
20260902202051 32 0 0.0 0.0 0.00 0.03 0.00 60 976.3
20260902200028 32 0 0.0 0.0 0.00 0.03 0.00 59 976.4
20260902194050 32 0 0.0 0.0 0.00 0.03 0.00 59 976.6
20260902193047 32 0 0.0 0.0 0.00 0.03 0.00 58 976.7
20260902192043 32 0 0.0 0.0 0.00 0.03 0.00 57 976.8
20260902191047 33 0 0.0 0.0 0.00 0.03 0.00 57 976.9
20260902190026 32 0 0.0 0.0 0.00 0.03 0.00 57 976.9
20260902185050 32 0 0.0 0.0 0.00 0.03 0.00 56 977.0
20260902184050 32 0 0.0 0.0 0.00 0.03 0.00 59 977.1
20260902183048 32 0 0.0 0.0 0.00 0.03 0.00 56 977.1
20260902181050 32 0 0.0 0.0 0.00 0.03 0.00 56 977.3
20260902180029 32 0 0.0 0.0 0.00 0.03 0.00 59 977.4
20260902175046 32 0 0.0 0.0 0.00 0.03 0.00 61 977.4
20260902174048 32 0 0.0 0.0 0.00 0.03 0.00 60 977.8
20260902173048 32 0 0.0 0.0 0.00 0.03 0.00 61 978.0
20260902172048 31 0 0.0 0.0 0.00 0.03 0.00 62 978.1
20260902171050 31 0 0.0 0.0 0.00 0.03 0.00 64 978.1
20260902162046 31 0 0.0 0.0 0.00 0.03 0.00 65 978.3
20260902161052 30 0 0.0 0.0 0.00 0.03 0.00 68 978.2
20260902160028 30 0 0.0 0.0 0.00 0.03 0.00 70 978.3
20260902155046 30 0 0.0 0.0 0.00 0.03 0.00 70 978.3
20260902154044 30 0 0.0 0.0 0.00 0.03 0.00 72 978.3
20260902153052 29 0 0.0 0.0 0.00 0.03 0.00 72 978.3
20260902152048 28 0 0.0 0.0 0.00 0.03 0.00 74 978.4
20260902151049 28 0 0.0 0.0 0.00 0.03 0.00 75 978.4
20260902145044 28 0 0.0 0.0 0.00 0.03 0.00 77 978.3
20260902143048 27 0 0.0 0.0 0.00 0.03 0.00 81 978.2
20260902142047 27 0 0.0 0.0 0.00 0.03 0.00 82 978.2
20260902141041 26 0 0.0 0.0 0.00 0.03 0.00 83 978.2
20260902140030 26 0 0.0 0.0 0.00 0.03 0.00 85 978.1
20260902134042 25 0 0.0 0.0 0.00 0.03 0.00 87 978.2
20260902133048 25 0 0.0 0.0 0.00 0.03 0.00 88 978.2
20260902132044 25 0 0.0 0.0 0.00 0.03 0.00 89 978.2
20260902131049 25 0 0.0 0.0 0.00 0.03 0.00 90 978.3
20260902130031 25 0 0.0 0.0 0.00 0.03 0.00 91 978.2
20260902125051 24 0 0.0 0.0 0.00 0.03 0.00 93 978.1
20260902124047 23 0 0.0 0.0 0.00 0.03 0.00 95 978.1
20260902122049 22 0 0.0 0.0 0.00 0.03 0.00 95 978.0
20260902121052 22 0 0.0 0.0 0.00 0.03 0.00 95 978.1
20260902120031 22 0 0.0 0.0 0.00 0.03 0.00 95 978.0
20260902115047 22 0 0.0 0.0 0.00 0.03 0.00 95 977.9
20260902114048 22 0 0.0 0.0 0.00 0.03 0.00 95 977.8
20260902113051 22 0 0.0 0.0 0.00 0.03 0.00 95 977.7
20260902112052 22 0 0.0 0.0 0.00 0.03 0.00 94 977.5
20260902110031 22 0 0.0 0.0 0.00 0.03 0.00 94 977.3
20260902105052 22 0 0.0 0.0 0.00 0.03 0.00 94 977.2
20260902104051 22 0 0.0 0.0 0.00 0.03 0.00 94 977.3
20260902103053 22 0 0.0 0.0 0.00 0.03 0.00 94 977.2
20260902102047 22 0 0.0 0.0 0.00 0.03 0.00 94 977.1
20260902101049 22 0 0.0 0.0 0.00 0.03 0.00 94 977.1
20260902095047 22 0 0.0 0.0 0.00 0.03 0.00 92 977.1
20260902094047 22 0 0.0 0.0 0.00 0.03 0.00 92 977.1
20260902093050 23 0 0.0 0.0 0.00 0.03 0.00 92 977.2
20260902092050 23 0 0.0 0.0 0.00 0.03 0.00 91 977.2
20260902090031 23 0 0.0 0.0 0.00 0.03 0.00 90 977.3
20260902085053 23 0 0.0 0.0 0.00 0.03 0.00 90 977.3
20260902084049 23 0 0.0 0.0 0.00 0.03 0.00 90 977.3
20260902083053 23 0 0.0 0.0 0.00 0.03 0.00 90 977.2
20260902082048 23 0 0.0 0.0 0.00 0.03 0.00 91 977.2
20260902081053 23 0 0.0 0.0 0.00 0.03 0.00 91 977.2